Wind_Speed
26 26 26 26 26 25 24 22 21 21 20 19 18 18 17 17 17 16 15 14 14 13 13 12 12 11 11 11 10 10 11 11 11 11 11 11 11 11 10 10 10 10 9 9 8 8 7 7 7
27 28 28 28 28 27 24 23 23 23 22 21 20 20 19 19 19 18 17 16 15 15 15 15 14 13 13 12 12 12 12 12 12 13 13 13 13 12 12 12 11 11 11 11 11 10 10 9 9
29 29 29 29 29 28 25 25 25 24 24 23 22 22 21 20 20 20 19 18 17 17 17 17 16 15 15 15 14 14 14 14 14 14 14 14 14 14 14 14 14 13 13 13 13 12 12 11 11
31 31 31 30 29 28 27 27 27 25 25 24 24 24 23 22 22 21 20 20 19 19 19 19 18 18 17 17 16 16 16 16 16 16 16 16 16 16 16 15 15 15 15 15 15 14 14 14 13
33 32 32 32 30 29 28 29 28 27 26 25 26 25 25 25 24 23 22 21 21 21 21 21 20 19 19 19 19 18 18 18 17 17 17 17 17 17 17 17 17 17 17 17 17 16 16 15 15
34 33 33 32 31 30 31 31 30 30 28 27 27 27 27 26 25 25 25 24 23 23 22 22 21 21 21 20 20 20 20 20 19 19 19 19 19 19 19 20 19 19 19 19 19 18 18 18 17
34 34 33 32 31 31 31 32 32 31 30 29 28 29 29 28 28 27 26 25 25 25 24 24 23 23 23 22 22 22 22 22 22 21 21 21 21 21 22 22 22 22 21 21 21 21 20 20 20
34 34 34 33 32 31 31 33 33 32 33 32 31 30 30 30 29 29 28 28 27 27 26 26 25 25 25 24 24 24 23 23 23 23 23 23 23 23 24 24 24 24 24 24 23 23 23 23 22
33 35 34 33 33 33 33 34 35 34 34 34 32 32 32 31 31 30 30 29 29 29 28 28 27 27 27 26 26 26 25 25 25 25 25 25 25 25 25 25 26 26 26 26 26 25 25 25 24
33 34 33 32 33 33 34 35 36 36 36 35 33 33 33 33 33 32 32 31 31 30 30 30 29 29 29 29 28 28 28 27 27 27 27 27 27 27 27 27 27 27 28 28 28 28 27 27 26
32 32 32 32 33 33 34 36 36 37 37 37 36 34 34 35 34 34 33 33 32 32 32 31 31 31 31 31 30 30 30 29 29 29 28 29 29 29 29 29 29 29 29 29 29 29 29 28 28
33 32 33 33 34 34 35 36 37 38 38 38 37 36 35 35 35 35 34 34 34 33 33 33 33 33 33 33 32 32 32 31 30 30 31 31 31 31 30 30 30 30 31 31 31 31 30 30 30
33 33 34 34 35 36 36 36 37 38 38 38 38 36 36 36 37 36 36 36 35 35 35 35 35 35 34 34 34 34 33 33 33 32 32 32 32 32 32 32 31 31 32 32 32 32 32 32 31
33 34 35 36 36 37 37 38 38 38 38 38 39 39 38 38 38 38 38 37 38 38 37 37 37 37 36 36 36 36 35 35 35 35 34 34 34 34 34 33 34 34 34 34 34 34 34 34 33
33 35 36 37 37 38 39 39 39 39 40 39 39 39 40 39 39 39 39 39 39 39 39 38 38 38 38 38 37 37 37 37 37 37 37 36 36 36 35 35 35 36 35 35 35 36 36 35 35
33 35 36 36 37 38 40 40 40 40 41 41 40 40 40 40 39 39 40 40 40 39 39 39 40 40 40 39 39 39 39 39 39 39 39 38 38 37 37 37 37 37 37 37 37 37 37 37 37
34 35 36 35 36 37 39 40 39 40 41 42 42 41 41 41 40 40 40 41 41 41 41 41 41 41 41 41 42 41 41 41 41 40 40 40 40 40 39 40 40 39 39 40 40 39 39 39 39
34 35 36 36 36 37 38 39 39 39 41 42 42 42 42 41 41 41 41 41 42 42 42 42 42 43 43 43 43 43 43 43 43 42 42 42 42 42 42 41 41 41 41 42 41 41 41 40 41
34 35 36 36 37 38 38 39 39 39 40 41 42 42 42 42 41 42 42 42 42 43 43 43 43 43 43 44 44 44 44 44 44 43 43 43 44 43 43 43 43 43 43 43 43 43 43 42 42
33 35 35 36 37 38 38 39 39 39 40 41 42 42 43 44 43 43 43 43 43 43 44 44 44 44 44 45 45 45 45 45 45 45 44 44 44 44 44 44 45 44 44 44 45 44 44 44 44
33 34 35 36 37 38 39 40 39 40 40 41 42 42 43 44 44 44 44 44 44 44 45 45 46 45 45 45 45 46 46 46 46 46 46 45 45 45 45 45 44 44 44 45 45 45 45 45 45
32 33 34 35 36 37 39 41 38 39 40 40 40 41 41 42 43 44 44 45 45 45 45 45 46 46 46 45 46 46 47 46 46 46 47 46 46 45 45 46 46 45 45 45 46 45 46 46 46
31 32 33 34 36 37 37 39 38 38 39 39 39 40 40 40 41 42 43 44 44 45 45 45 46 47 46 46 46 46 46 46 47 47 47 47 47 47 47 47 47 48 47 47 48 47 47 48 47
31 31 32 33 35 37 36 37 37 36 36 37 38 38 39 40 41 41 42 42 43 44 44 45 46 46 46 46 47 46 47 46 47 48 48 48 48 48 48 48 48 49 49 49 50 50 51 50 50
30 30 31 32 34 35 33 35 35 34 34 35 36 37 38 39 40 41 41 41 42 43 44 44 45 45 46 46 47 47 47 47 48 48 48 48 49 49 50 50 50 51 51 51 52 52 52 52 52
29 30 31 32 33 33 32 33 32 32 32 32 33 35 37 38 39 40 40 40 41 42 43 43 44 44 45 45 46 47 48 48 49 49 49 49 50 50 51 51 52 52 52 52 52 53 52 53 54
28 29 29 31 32 33 33 32 31 31 31 31 32 34 35 37 37 38 39 39 40 40 41 41 42 43 44 45 46 47 48 49 49 50 50 50 50 51 52 52 53 52 52 52 53 53 53 54 53
28 28 29 30 31 33 33 31 30 30 31 32 33 34 34 35 36 36 37 38 39 40 41 41 42 43 44 45 45 46 47 48 49 49 50 51 51 52 52 52 53 53 53 53 53 53 53 53 52
26 27 29 30 31 33 33 31 30 29 30 32 32 33 33 33 34 35 36 37 38 39 40 41 41 42 43 44 45 46 46 47 48 49 49 49 49 50 51 52 52 53 53 53 53 53 54 53 52
27 27 28 30 30 31 33 32 29 29 29 30 31 32 32 33 34 35 35 37 38 39 40 40 41 41 42 43 44 44 45 47 48 49 49 50 50 49 50 51 52 52 52 53 53 53 54 54 54
Wind_Direction
234 233 233 233 233 232 233 233 233 233 234 234 235 236 235 237 238 239 237 237 236 236 237 237 238 239 239 239 241 242 241 242 241 240 240 239 237 238 239 239 240 240 242 245 248 247 247 247 249
236 234 235 234 234 234 234 234 233 233 235 236 237 237 237 237 239 239 238 238 238 238 239 240 241 242 243 244 244 245 245 245 244 243 244 244 243 242 242 245 246 245 246 248 250 250 251 253 253
237 236 237 236 236 235 235 235 234 234 235 237 238 238 238 238 239 240 239 238 239 240 240 242 242 243 245 246 246 247 248 248 247 246 246 247 246 245 245 248 249 249 250 251 252 253 253 254 254
238 238 238 238 237 236 236 237 236 236 236 238 239 239 240 240 240 241 241 240 241 242 243 243 244 244 246 247 247 249 250 250 249 249 249 249 248 248 247 248 250 251 251 253 254 255 255 255 256
239 240 240 239 238 238 238 239 239 238 238 239 240 240 241 242 242 243 242 242 242 243 244 245 246 246 247 248 249 250 251 252 251 251 251 250 251 249 248 249 251 252 252 253 254 256 256 257 258
240 242 241 239 240 239 239 240 241 240 238 240 241 242 243 244 244 244 243 243 243 245 246 247 247 247 247 248 250 251 251 252 252 253 253 252 252 251 250 251 251 252 252 254 256 257 258 259 260
240 243 243 241 240 239 239 241 241 241 240 240 241 242 244 244 244 244 244 244 244 245 246 247 248 249 249 249 249 250 251 253 254 254 254 253 254 254 252 252 253 253 254 255 256 257 259 260 261
242 244 243 242 240 239 239 241 242 242 241 241 241 242 243 245 245 245 245 245 245 246 247 248 248 249 250 251 251 251 252 253 255 255 256 255 255 256 256 254 253 254 255 255 256 256 257 259 261
243 244 243 243 242 239 239 241 243 244 244 244 244 244 243 244 245 245 246 246 247 247 248 248 249 249 250 251 252 252 253 254 255 256 257 257 257 257 257 256 255 256 256 256 256 257 257 259 260
243 243 243 243 242 241 240 241 243 245 246 246 247 247 246 246 246 245 246 247 247 248 249 249 249 250 250 251 252 253 253 254 255 256 258 258 258 259 258 258 257 257 258 258 258 258 258 259 260
244 244 243 242 242 242 241 242 243 245 246 247 247 247 247 247 246 246 246 247 248 248 249 250 251 252 252 252 253 253 254 255 256 256 257 258 258 259 259 258 258 258 257 258 258 258 259 259 260
246 246 245 244 243 242 242 242 243 245 246 246 248 248 247 247 247 247 247 247 247 248 249 250 251 252 253 254 254 255 255 256 256 256 257 257 258 258 259 259 259 258 258 258 258 259 259 259 259
247 247 247 246 245 244 243 243 244 245 246 246 246 247 247 247 247 246 247 247 247 248 249 251 251 252 252 254 255 255 255 256 257 257 257 258 258 259 259 260 260 260 260 259 258 258 259 259 259
247 247 247 247 247 246 245 245 244 245 246 247 246 246 245 247 248 248 248 249 248 248 249 250 252 252 253 254 255 256 256 256 256 257 258 258 258 259 259 260 260 260 261 259 258 258 259 259 259
248 248 248 248 248 248 247 246 246 245 246 246 247 247 248 248 248 249 249 249 250 250 251 251 251 252 253 254 255 256 257 258 258 258 258 259 259 259 258 258 258 259 260 259 258 259 259 259 259
249 249 249 249 250 249 248 248 247 246 246 246 248 249 249 249 248 248 249 249 250 251 251 252 252 252 252 253 254 255 257 258 259 258 258 258 258 259 259 258 258 259 259 260 259 259 259 259 259
250 250 250 251 251 250 250 248 246 246 247 247 248 249 249 249 249 249 249 249 249 250 251 251 252 252 253 253 254 255 256 257 258 259 259 258 258 258 259 259 259 260 260 260 260 260 260 260 259
252 253 252 252 251 251 251 250 247 246 247 247 248 249 249 249 249 249 249 249 250 250 251 252 253 253 253 254 254 255 256 257 258 259 259 259 259 259 259 259 259 260 260 260 260 261 261 260 260
254 254 254 253 253 252 252 251 249 248 248 248 248 249 248 248 248 249 250 251 251 251 252 253 253 254 254 254 255 255 256 257 258 259 259 259 259 260 259 259 259 260 261 261 261 261 260 260 261
255 255 255 254 254 253 253 252 250 249 249 249 249 249 249 249 249 250 251 252 252 253 253 253 254 253 254 255 255 256 256 257 258 259 259 259 260 260 258 259 259 260 261 261 261 261 261 261 261
256 257 257 257 256 255 255 254 252 251 250 250 251 251 251 251 252 251 252 252 253 253 254 255 254 254 255 255 255 255 256 257 257 258 259 260 261 261 259 258 259 259 260 261 261 262 262 262 261
258 258 259 258 257 257 257 258 253 253 252 251 251 252 252 252 253 253 254 254 253 254 254 255 255 255 255 255 255 255 255 256 257 258 258 260 261 261 260 259 258 258 259 260 261 262 262 262 263
260 260 260 260 259 259 258 260 257 255 253 252 252 251 252 253 254 254 255 255 254 255 255 255 256 256 255 255 256 255 255 256 256 257 258 259 259 259 259 259 258 259 259 260 261 261 262 263 263
260 259 259 259 259 259 259 261 259 256 254 253 253 253 253 254 255 255 255 256 256 256 255 255 255 255 255 255 256 256 256 257 257 258 258 258 258 259 259 259 259 259 260 261 261 262 262 263 262
259 259 259 260 260 262 261 261 261 257 255 254 254 254 254 255 256 257 257 257 258 257 257 257 256 255 255 256 257 257 257 257 258 258 259 259 259 259 260 260 260 261 261 262 262 263 264 263 263
258 258 260 262 264 264 263 262 261 259 257 256 255 255 256 256 257 258 258 258 258 259 259 258 257 256 256 256 257 257 257 257 257 258 259 260 260 260 260 260 262 262 262 262 263 263 263 263 263
256 257 260 262 265 266 265 263 261 259 258 258 257 258 258 259 259 259 258 258 259 259 259 258 257 257 256 257 257 258 258 257 257 258 258 259 260 261 261 261 262 263 263 263 263 263 263 263 263
255 257 259 261 265 267 266 264 264 262 261 260 259 259 260 260 259 260 259 258 258 258 258 258 258 258 258 258 259 259 259 258 258 258 259 259 261 261 261 261 261 262 262 263 263 263 264 263 263
257 257 258 260 264 266 267 266 267 267 265 263 262 261 261 261 260 260 259 258 259 259 259 260 260 260 259 259 260 260 260 259 259 259 260 260 261 262 261 262 262 263 264 264 264 263 263 263 262
258 260 262 263 264 266 268 267 268 268 268 267 265 263 263 262 261 261 261 260 260 260 260 261 261 260 260 261 261 261 261 260 260 260 261 260 261 262 263 263 263 264 264 264 264 264 263 263 262
Height
5820 5822 5824 5827 5829 5830 5832 5835 5837 5838 5839 5841 5842 5844 5845 5847 5849 5852 5852 5851 5852 5853 5854 5855 5855 5856 5857 5857 5858 5859 5860 5860 5861 5862 5862 5863 5864 5865 5866 5866 5867 5867 5867 5867 5868 5868 5868 5868 5868
5815 5818 5820 5822 5823 5826 5829 5831 5833 5835 5836 5838 5839 5840 5842 5843 5845 5846 5848 5849 5850 5850 5851 5852 5853 5854 5855 5855 5856 5857 5858 5859 5859 5860 5861 5861 5862 5863 5864 5864 5865 5865 5866 5866 5866 5866 5867 5867 5867
5810 5812 5815 5816 5818 5822 5825 5827 5829 5831 5832 5834 5835 5837 5838 5840 5841 5843 5845 5846 5847 5848 5849 5849 5850 5851 5852 5853 5854 5855 5856 5856 5857 5858 5858 5859 5860 5861 5862 5862 5863 5863 5864 5864 5864 5865 5865 5865 5865
5805 5807 5809 5812 5814 5818 5821 5822 5824 5826 5828 5830 5831 5833 5834 5836 5837 5839 5841 5842 5843 5844 5845 5846 5847 5848 5849 5850 5851 5852 5853 5854 5854 5855 5856 5857 5857 5858 5859 5860 5860 5861 5861 5862 5862 5863 5863 5863 5863
5799 5801 5803 5805 5809 5813 5815 5817 5819 5821 5823 5825 5826 5828 5829 5831 5833 5835 5837 5838 5840 5841 5842 5843 5844 5845 5846 5847 5848 5849 5850 5851 5852 5852 5853 5854 5854 5855 5856 5857 5857 5858 5859 5859 5860 5860 5860 5860 5861
5793 5795 5798 5800 5804 5807 5810 5811 5813 5816 5818 5820 5821 5823 5824 5827 5828 5830 5832 5834 5835 5837 5838 5839 5840 5841 5842 5843 5844 5845 5846 5847 5848 5849 5850 5850 5851 5852 5852 5853 5854 5854 5855 5856 5857 5857 5857 5858 5858
5787 5789 5791 5795 5798 5801 5804 5805 5807 5810 5812 5814 5816 5818 5819 5822 5823 5825 5827 5829 5830 5832 5833 5834 5836 5837 5838 5839 5840 5841 5842 5843 5844 5845 5846 5846 5847 5848 5849 5849 5850 5851 5851 5852 5853 5853 5854 5854 5855
5780 5783 5785 5788 5792 5796 5798 5799 5801 5804 5806 5808 5810 5812 5814 5816 5818 5820 5821 5823 5825 5826 5828 5829 5831 5832 5833 5834 5835 5836 5837 5839 5840 5840 5841 5842 5843 5844 5844 5845 5846 5846 5847 5848 5849 5849 5850 5850 5851
5773 5777 5779 5783 5786 5789 5790 5792 5794 5797 5799 5802 5804 5806 5808 5810 5812 5814 5816 5817 5819 5821 5823 5824 5826 5827 5828 5829 5830 5831 5832 5834 5834 5835 5836 5837 5838 5839 5839 5840 5841 5842 5842 5843 5844 5845 5845 5846 5846
5766 5769 5773 5776 5779 5781 5783 5785 5787 5790 5792 5795 5798 5800 5801 5803 5805 5808 5810 5811 5813 5815 5817 5818 5819 5821 5822 5823 5825 5826 5827 5828 5829 5830 5831 5832 5833 5833 5834 5835 5836 5836 5837 5838 5838 5839 5840 5840 5841
5760 5763 5766 5768 5771 5773 5776 5778 5780 5783 5785 5788 5790 5793 5795 5796 5798 5801 5803 5805 5807 5808 5810 5811 5813 5814 5816 5817 5818 5820 5821 5822 5823 5824 5825 5826 5827 5827 5828 5829 5830 5830 5831 5832 5833 5834 5834 5835 5836
5754 5757 5759 5761 5763 5766 5768 5770 5772 5775 5778 5780 5782 5785 5787 5789 5791 5793 5796 5798 5800 5801 5803 5804 5806 5807 5809 5810 5812 5813 5814 5815 5817 5817 5818 5819 5820 5821 5822 5822 5823 5824 5825 5826 5827 5827 5828 5829 5829
5746 5749 5751 5753 5755 5758 5760 5763 5765 5767 5769 5772 5774 5777 5779 5781 5783 5785 5788 5790 5792 5794 5795 5797 5798 5800 5801 5803 5804 5806 5807 5808 5809 5810 5811 5812 5813 5814 5814 5815 5816 5817 5818 5819 5820 5820 5821 5822 5823
5739 5741 5743 5745 5747 5749 5752 5754 5757 5760 5761 5764 5766 5769 5771 5773 5775 5777 5779 5781 5783 5785 5787 5789 5790 5792 5793 5795 5796 5798 5799 5800 5801 5802 5803 5804 5805 5806 5807 5808 5809 5810 5811 5812 5812 5813 5814 5815 5816
5731 5733 5735 5737 5739 5741 5743 5746 5749 5751 5753 5755 5757 5760 5762 5764 5766 5768 5770 5772 5774 5776 5778 5780 5782 5783 5785 5786 5788 5789 5791 5792 5793 5794 5795 5796 5797 5798 5799 5800 5801 5802 5803 5803 5804 5805 5806 5807 5808
5723 5725 5727 5730 5731 5732 5735 5738 5741 5742 5744 5746 5748 5751 5753 5755 5757 5759 5761 5763 5765 5767 5769 5771 5772 5774 5776 5778 5779 5781 5782 5783 5784 5785 5786 5787 5788 5789 5790 5791 5793 5793 5794 5795 5796 5797 5798 5799 5800
5715 5717 5719 5722 5722 5723 5725 5728 5732 5733 5734 5737 5739 5741 5743 5745 5747 5750 5752 5754 5756 5757 5759 5761 5763 5765 5767 5768 5770 5771 5773 5774 5775 5776 5777 5778 5779 5780 5782 5783 5784 5785 5786 5787 5788 5789 5790 5791 5791
5708 5709 5711 5712 5714 5715 5716 5718 5722 5723 5725 5727 5729 5731 5733 5735 5738 5740 5742 5744 5746 5748 5749 5751 5752 5754 5756 5758 5759 5761 5763 5764 5765 5766 5767 5768 5769 5770 5772 5773 5774 5775 5776 5777 5778 5779 5780 5781 5782
5699 5700 5702 5703 5704 5705 5707 5709 5712 5713 5715 5717 5719 5721 5723 5725 5727 5729 5731 5733 5735 5737 5739 5741 5742 5744 5745 5747 5749 5751 5752 5753 5754 5755 5756 5757 5758 5759 5761 5762 5764 5765 5766 5767 5768 5769 5770 5771 5772
5689 5691 5692 5694 5695 5695 5697 5699 5701 5703 5705 5707 5709 5711 5713 5714 5717 5719 5721 5723 5724 5726 5728 5730 5731 5733 5734 5736 5738 5739 5741 5742 5743 5744 5745 5746 5747 5748 5749 5751 5752 5754 5755 5756 5758 5759 5760 5761 5762
5681 5682 5684 5685 5685 5685 5686 5688 5691 5693 5694 5696 5698 5699 5701 5703 5705 5707 5709 5711 5713 5715 5717 5718 5720 5722 5723 5725 5726 5728 5730 5731 5732 5733 5734 5735 5735 5736 5737 5739 5741 5743 5744 5745 5746 5748 5749 5750 5751
5673 5674 5674 5675 5675 5675 5676 5676 5682 5683 5684 5686 5688 5689 5691 5693 5695 5696 5698 5700 5702 5704 5705 5707 5708 5710 5711 5713 5715 5716 5718 5720 5721 5722 5723 5724 5724 5724 5725 5727 5729 5731 5733 5734 5735 5736 5737 5738 5739
5664 5665 5665 5665 5665 5665 5666 5665 5670 5672 5673 5676 5678 5679 5681 5683 5684 5685 5687 5688 5690 5692 5694 5695 5697 5698 5700 5701 5703 5705 5706 5707 5709 5710 5711 5712 5713 5713 5714 5716 5718 5720 5721 5722 5723 5724 5725 5726 5727
5655 5656 5655 5655 5654 5655 5657 5655 5658 5662 5664 5666 5668 5669 5671 5672 5673 5675 5676 5677 5679 5680 5682 5683 5685 5687 5688 5690 5691 5693 5694 5696 5697 5698 5699 5700 5701 5702 5703 5704 5706 5708 5709 5710 5711 5712 5713 5713 5714
5646 5647 5646 5645 5645 5646 5648 5646 5649 5653 5654 5656 5657 5659 5660 5661 5663 5664 5665 5666 5668 5669 5670 5672 5673 5675 5676 5677 5679 5680 5682 5683 5685 5686 5687 5688 5689 5690 5691 5692 5694 5695 5696 5697 5698 5699 5700 5701 5701
5638 5639 5639 5638 5637 5638 5638 5638 5642 5644 5645 5646 5647 5648 5649 5651 5652 5653 5654 5655 5656 5658 5659 5660 5661 5663 5664 5665 5667 5668 5669 5671 5672 5673 5674 5675 5676 5677 5678 5679 5681 5682 5683 5684 5685 5686 5687 5687 5688
5630 5630 5631 5630 5629 5629 5629 5631 5633 5634 5636 5637 5638 5638 5639 5641 5642 5642 5644 5645 5646 5647 5648 5649 5650 5651 5652 5653 5654 5655 5656 5657 5659 5660 5661 5663 5663 5664 5665 5666 5667 5668 5669 5670 5671 5672 5673 5674 5675
5623 5623 5622 5621 5620 5620 5621 5623 5625 5626 5627 5627 5628 5629 5630 5631 5632 5633 5633 5634 5635 5636 5636 5637 5638 5639 5640 5641 5642 5642 5643 5644 5645 5646 5648 5649 5650 5651 5652 5653 5654 5655 5656 5656 5657 5658 5659 5660 5661
5615 5615 5614 5613 5613 5612 5612 5617 5618 5618 5618 5618 5619 5619 5620 5621 5622 5622 5623 5623 5624 5625 5625 5626 5626 5627 5628 5629 5629 5630 5630 5631 5632 5633 5634 5635 5636 5637 5638 5639 5640 5641 5642 5642 5643 5644 5645 5646 5646
5607 5607 5607 5607 5606 5605 5604 5610 5609 5609 5609 5609 5609 5609 5610 5611 5611 5612 5612 5612 5613 5613 5614 5614 5614 5615 5616 5616 5617 5617 5618 5618 5619 5620 5621 5622 5623 5623 5624 5624 5625 5626 5627 5628 5629 5630 5630 5631 5632